Lid_Strength_Index
6 5 4 4 3 3 3 3 4 4 4 4 3 4 5 5 5 6 5 4 4 4 4 5 4 5 4 4 3 4 4 4
6 6 4 4 3 3 4 3 3 4 4 4 4 4 4 5 5 5 5 4 4 4 4 4 4 4 4 3 3 4 4 3
6 5 6 5 4 3 3 3 3 4 4 3 4 4 4 4 5 4 5 4 3 2 3 4 4 4 4 4 4 4 5 5
5 5 4 4 4 3 3 3 3 3 4 4 3 4 4 4 4 4 5 4 3 3 3 3 3 3 4 3 4 5 5 5
5 5 4 4 3 3 3 3 2 3 4 3 3 4 4 4 4 4 5 5 4 4 4 3 3 3 5 4 3 5 4 4
5 4 4 3 4 2 3 2 3 4 4 3 3 3 4 4 5 4 5 5 4 4 3 4 4 3 4 4 4 5 4 3
4 4 3 3 3 3 2 3 3 3 4 4 3 3 4 4 4 5 5 4 4 4 3 4 3 3 4 5 4 3 2 3
4 3 3 3 3 3 3 3 3 3 4 3 3 3 4 4 5 4 5 4 4 3 3 3 3 3 5 5 3 3 5 5
3 3 4 3 2 2 3 3 3 3 3 3 3 3 3 4 4 4 5 4 4 4 4 4 3 3 3 4 6 5 5 6
3 4 4 3 2 3 3 3 3 3 3 3 3 3 3 3 3 4 4 4 4 5 5 5 3 2 4 5 6 6 5 6
3 4 4 3 3 3 4 3 3 3 4 4 4 3 3 4 4 5 5 4 5 5 5 3 4 2 4 6 7 6 6 7
3 4 4 4 3 3 3 2 2 3 4 4 3 4 4 4 4 5 5 5 5 5 4 4 4 3 7 7 7 8 6 7
3 4 4 4 3 3 3 2 2 3 3 4 3 4 4 8 10 9 6 9 7 4 5 5 6 8 9 9 9 9 10 8
4 3 4 4 3 3 3 2 2 3 4 3 3 4 6 9 10 10 10 10 10 8 8 8 9 8 8 8 8 8 9 8
5 3 4 4 4 3 2 1 2 3 3 3 4 4 6 8 8 9 10 10 10 10 9 9 9 8 8 8 8 9 9 8
3 3 3 3 3 3 2 1 2 2 3 6 3 4 4 7 6 7 9 9 10 10 9 9 9 9 8 9 9 8 8 7
3 3 3 3 3 3 1 1 2 3 3 4 4 4 4 6 4 5 6 6 8 8 9 9 8 9 9 9 9 9 9 7
4 4 3 3 3 2 1 1 2 2 3 6 5 4 6 6 4 4 5 5 6 6 8 8 7 8 8 7 7 7 7 7
3 3 3 2 3 2 1 1 2 3 4 5 6 5 7 4 3 4 3 4 6 7 9 9 10 8 8 8 8 8 7 7
3 3 3 2 2 1 1 1 2 4 4 4 5 6 5 3 4 4 4 5 6 7 9 9 12 8 8 8 8 8 7 7